Cold Bay, AK

2:05 AM AKDT on July 24, 2017 (GMT -0800)
Cold Bay

Weather History for PACD - December, 2013

Change the Weather History Date:

Tuesday, December 17, 2013

  Actual Average Record
Temperature  
Mean Temperature 19 °F 31 °F  
Max Temperature 29 °F 36 °F 49 °F (1971)
Min Temperature 9 °F 27 °F 0 °F (1973)
Degree Days  
Heating Degree Days 46 34  
Month to date heating degree days 469 563  
Since 1 July heating degree days 2985 3583  
Cooling Degree Days 0 0  
Month to date cooling degree days 0 0  
Year to date cooling degree days 0 0  
Moisture  
Dew Point 18 °F    
Average Humidity 70    
Maximum Humidity 84    
Minimum Humidity 56    
Precipitation  
Precipitation 0.00 in 0.14 in 1.17 in (1970)
Month to date precipitation 2.66 2.68  
Year to date precipitation 44.78 39.89  
Snow  
Snow 0.00 in 0.40 in 5.40 in (2006)
Month to date snowfall 6.5 6.9  
Since 1 July snowfall 10.1 19.5  
Snow Depth 6.00 in    
Sea Level Pressure  
Sea Level Pressure 30.21 in    
Wind  
Wind Speed 12 mph (East)    
Max Wind Speed 20 mph    
Max Gust Speed 25 mph    
Visibility 10 miles    
Events Snow    
T = Trace of Precipitation, MM = Missing Value Source: NWS Daily Summary

Daily Weather History Graph

Daily Weather History Graph

Search for Another Location

Airport or City:

Trip Planner

Search our weather history database for the weather conditions in past years. The results will help you decide how hot, cold, wet, or windy it might be!

Date:

Astronomy

Dec. 17, 2013 Rise Set
Actual Time 10:13 AM AKST 5:21 PM AKST
Civil Twilight 9:27 AM AKST 6:07 PM AKST
Nautical Twilight 8:39 AM AKST 6:55 PM AKST
Astronomical Twilight 7:54 AM AKST 7:40 PM AKST
Moon 6:24 PM AKST (12/17) 10:06 AM AKST (12/17)
Length of Visible Light 8h 40m
Length of Day
7h 08m
Full, 100% of the Moon is Illuminated
Dec 17
Full
Dec 25
Last Quarter
Jan 1
New
Jan 7
First Quarter
Jan 15
Full

Hourly Weather History & Observations

Time (AKST) Temp. Windchill Dew Point Humidity Pressure Visibility Wind Dir Wind Speed Gust Speed Precip Events Conditions
12:53 AM 26.1 °F 18.4 °F 16.0 °F 66% 30.34 in 10.0 mi North 6.9 mph - N/A   Mostly Cloudy
1:53 AM 23.0 °F 18.4 °F 15.1 °F 72% 30.34 in 10.0 mi North 3.5 mph - N/A   Mostly Cloudy
2:53 AM 24.1 °F 17.0 °F 15.1 °F 69% 30.34 in 10.0 mi North 5.8 mph - N/A   Mostly Cloudy
3:39 AM 23.0 °F 13.1 °F 14.0 °F 68% 30.33 in 10.0 mi North 9.2 mph - N/A   Scattered Clouds
3:53 AM 21.9 °F 11.7 °F 14.0 °F 72% 30.34 in 10.0 mi North 9.2 mph - N/A   Scattered Clouds
4:53 AM 19.0 °F 9.0 °F 12.0 °F 74% 30.33 in 10.0 mi North 8.1 mph - N/A   Scattered Clouds
5:53 AM 24.1 °F 11.0 °F 15.1 °F 69% 30.32 in 10.0 mi NNE 16.1 mph - N/A   Scattered Clouds
6:53 AM 23.0 °F 13.1 °F 15.1 °F 72% 30.31 in 10.0 mi NNE 9.2 mph - N/A   Scattered Clouds
7:53 AM 19.0 °F 8.2 °F 10.9 °F 71% 30.31 in 10.0 mi NNE 9.2 mph - N/A   Scattered Clouds
8:53 AM 10.0 °F 3.6 °F 6.1 °F 84% 30.31 in 10.0 mi South 3.5 mph - N/A   Partly Cloudy
9:53 AM 12.9 °F 5.2 °F 8.1 °F 81% 30.31 in 10.0 mi South 4.6 mph - N/A   Partly Cloudy
10:53 AM 12.0 °F - 8.1 °F 84% 30.32 in 10.0 mi Calm Calm - N/A   Partly Cloudy
11:53 AM 18.0 °F 11.1 °F 12.0 °F 78% 30.30 in 10.0 mi NNE 4.6 mph - N/A   Partly Cloudy
12:53 PM 18.0 °F 6.9 °F 10.0 °F 71% 30.30 in 10.0 mi SSE 9.2 mph - N/A   Partly Cloudy
1:53 PM 21.9 °F 11.7 °F 12.9 °F 68% 30.29 in 10.0 mi SSE 9.2 mph - N/A   Partly Cloudy
2:36 PM 26.6 °F 16.2 °F 17.6 °F 69% 30.26 in 10.0 mi SSE 11.5 mph - N/A   Mostly Cloudy
2:53 PM 28.0 °F 18.6 °F 19.0 °F 69% 30.26 in 10.0 mi SE 10.4 mph - N/A   Mostly Cloudy
3:53 PM 30.9 °F 18.4 °F 21.9 °F 69% 30.20 in 10.0 mi SE 20.7 mph - N/A   Mostly Cloudy
4:53 PM 30.9 °F 18.7 °F 21.0 °F 67% 30.19 in 10.0 mi SE 19.6 mph - N/A   Mostly Cloudy
5:53 PM 32.0 °F 18.9 °F 23.0 °F 69% 30.16 in 8.0 mi SE 24.2 mph 32.2 mph N/A   Overcast
6:53 PM 33.1 °F 20.3 °F 25.0 °F 72% 30.13 in 10.0 mi ESE 24.2 mph - N/A   Overcast
7:53 PM 34.0 °F 20.1 °F 25.0 °F 70% 30.09 in 9.0 mi ESE 31.1 mph 36.8 mph 0.00 in   Overcast
8:53 PM 36.0 °F 23.5 °F 26.1 °F 67% 30.05 in 10.0 mi ESE 27.6 mph 41.4 mph N/A   Overcast
9:12 PM 35.6 °F 22.5 °F 26.6 °F 70% 30.04 in 10.0 mi ESE 29.9 mph 39.1 mph N/A   Overcast
9:53 PM 37.0 °F 24.1 °F 27.0 °F 67% 30.01 in 10.0 mi ESE 32.2 mph 39.1 mph N/A   Overcast
10:12 PM 37.4 °F 24.6 °F 26.6 °F 65% 29.99 in 9.0 mi SE 32.2 mph 46.0 mph 0.00 in Snow Light Snow
10:48 PM 37.4 °F 24.4 °F 28.4 °F 70% 29.97 in 9.0 mi SE 33.4 mph 43.7 mph 0.00 in Snow Light Snow
10:53 PM 37.0 °F 23.3 °F 28.0 °F 70% 29.96 in 9.0 mi ESE 36.8 mph 46.0 mph 0.00 in Snow Light Snow
11:53 PM 37.0 °F 23.9 °F 28.9 °F 73% 29.92 in 9.0 mi SE 33.4 mph 46.0 mph 0.00 in Snow Light Snow